Location: Baggettsville
(36.4767°N, 86.7303°W)
Time: 21:09:11
(UTC+00:00)

ISS - Pass Details

Date: 01 October 2021
Orbit: 417 x 423 km, 51.6° (Epoch: 25 October)

Event Time Altitude Azimuth Distance (km) Brightness Sun altitude
Rises 01:16:26 0° 322° (NW) 2,365 0.8 -21.8°
Reaches altitude 10° 01:19:00 10° 342° (NNW) 1,500 -0.6 -22.3°
Enters shadow 01:20:12 15° 1° (N) 1,216 -1.3 -22.6°
